Location: Newark
(21.1200°N, 73.4000°E)
Time: 06:22:32
(UTC+00:00)

Explorer 11/Cluster Stage 4 - Pass Details

Date: 22 January 2020
Orbit: 467 x 1259 km, 28.8° (Epoch: 19 February)

Event Time Altitude Azimuth Distance (km) Brightness Sun altitude
Rises 10:45:34 0° 266° (W) 4,153 11.2 24.8°
Reaches altitude 10° 10:48:41 10° 271° (W) 3,131 10.7 24.2°
Maximum altitude 10:56:20 54° 347° (NNW) 1,281 7.8 22.7°
Drops below altitude 10° 11:02:45 10° 64° (ENE) 2,641 8.8 21.5°
Sets 11:05:12 0° 69° (ENE) 3,464 9.3 21.0°
